This is the latest recevied weather packets stored in our database for station/object KO4IDC-13. If no packets are shown the sender has not sent any weather packets the latest 10 day(s).
| Time | Temp. | Humidity | Pressure | Rain* | Wind** | Luminosity | Snow |
|---|---|---|---|---|---|---|---|
| 1778049988 | 9.44° C | 98% | 1011.4 hPa | 4.32 mm | - | 0 W/m² | - |
| 1778049683 | 9.44° C | 98% | 1011.8 hPa | 3.05 mm | - | 0 W/m² | - |
| 1778049382 | 9.44° C | 98% | 1012.2 hPa | 0 mm | - | 0 W/m² | - |
| 1778049079 | 9.44° C | 98% | 1012.6 hPa | 0 mm | - | 0 W/m² | - |
| 1778048777 | 9.44° C | 98% | 1012.4 hPa | 0 mm | - | 0 W/m² | - |
| 1778048474 | 9.44° C | 98% | 1012.6 hPa | 0 mm | - | 0 W/m² | - |
| 1778048170 | 9.44° C | 98% | 1012 hPa | 0 mm | - | 0 W/m² | - |
| 1778047868 | 9.44° C | 98% | 1012 hPa | 1.78 mm | - | 0 W/m² | - |
| 1778047566 | 9.44° C | 98% | 1012 hPa | 1.78 mm | - | 0 W/m² | - |
| 1778047263 | 9.44° C | 98% | 1012.2 hPa | 1.78 mm | - | 0 W/m² | - |
| 1778046960 | 9.44° C | 98% | 1012.7 hPa | 1.78 mm | - | 0 W/m² | - |
| 1778046657 | 9.44° C | 98% | 1012.2 hPa | 1.27 mm | - | 0 W/m² | - |
| 1778046354 | 9.44° C | 98% | 1011.8 hPa | 1.27 mm | - | 0 W/m² | - |
| 1778046049 | 9.44° C | 98% | 1012 hPa | 0 mm | - | 0 W/m² | - |
| 1778045748 | 9.44° C | 98% | 1011.7 hPa | 0 mm | - | 0 W/m² | - |
| 1778045446 | 9.44° C | 98% | 1012.1 hPa | 0 mm | - | 0 W/m² | - |
| 1778045144 | 9.44° C | 98% | 1012 hPa | 0 mm | - | 0 W/m² | - |
| 1778044841 | 9.44° C | 98% | 1011.8 hPa | 0 mm | - | 0 W/m² | - |
| 1778044538 | 9.44° C | 99% | 1011.7 hPa | 0 mm | - | 0 W/m² | - |
| 1778044235 | 9.44° C | 99% | 1011.6 hPa | 0 mm | - | 0 W/m² | - |
| 1778043932 | 9.44° C | 98% | 1011.3 hPa | 1.78 mm | - | 0 W/m² | - |
| 1778043630 | 9.44° C | 99% | 1011.4 hPa | 1.78 mm | - | 0 W/m² | - |
| 1778043326 | 9.44° C | 99% | 1011.3 hPa | 1.27 mm | - | 0 W/m² | - |
| 1778043023 | 10° C | 99% | 1011.5 hPa | 1.27 mm | - | 0 W/m² | - |
| 1778042721 | 10° C | 99% | 1011.8 hPa | 0 mm | - | 0 W/m² | - |
* Rain latest hour (hover to see other rain measurements)
** Current wind speed in m/s (hover to see current wind gust speed)